�N����,����,�~����,�C��,���x,�C��,����,���ϕ���,�ő�u�ԕ���,�ő厞����,���˗�,�I�_���x,�n�����x,�ő啗���N��,DTYPE
"21/05/21","00:10",0.0,20.5,97.1,1002.6,286.7,0.6,1.4,346.4,0.00,20.1,130.0,"00:01:28",1
"21/05/21","00:20",0.0,20.6,97.1,1002.4,323.4,0.6,1.3,341.9,0.00,20.2,130.0,"00:18:16",1
"21/05/21","00:30",0.0,20.6,97.1,1001.9,337.1,0.6,1.6,344.6,0.00,20.2,130.0,"00:20:56",1
"21/05/21","00:40",0.0,20.7,97.1,1001.9,341.2,0.6,1.3,358.3,0.00,20.3,130.0,"00:37:12",1
"21/05/21","00:50",0.0,20.9,97.1,1001.9,7.3,0.5,1.3,206.0,0.00,20.5,130.0,"00:49:44",1
"21/05/21","01:00",0.2,20.9,97.1,1001.7,291.6,0.6,1.2,338.7,0.00,20.5,130.0,"00:57:36",1
"21/05/21","01:10",2.0,21.0,97.1,1001.5,158.0,1.2,2.4,173.7,0.00,20.6,130.0,"01:05:12",1
"21/05/21","01:20",1.0,20.9,97.1,1001.7,180.3,0.5,1.3,116.9,0.00,20.5,130.0,"01:10:08",1
"21/05/21","01:30",4.2,20.9,97.3,1001.5,144.0,1.2,3.1,170.3,0.00,20.5,130.0,"01:29:28",1
"21/05/21","01:40",3.8,20.9,97.2,1001.5,162.9,1.6,2.6,174.1,0.00,20.5,130.0,"01:30:40",1
"21/05/21","01:50",2.6,20.8,97.2,1001.7,196.7,0.5,1.3,119.5,0.00,20.4,130.0,"01:41:28",1
"21/05/21","02:00",0.8,20.7,97.3,1001.2,26.1,0.6,1.7,343.1,0.00,20.3,130.0,"01:53:12",1
"21/05/21","02:10",0.6,20.7,97.3,1001.2,320.7,0.7,2.2,235.0,0.00,20.3,130.0,"02:03:04",1
"21/05/21","02:20",2.6,20.7,97.3,1001.2,335.0,1.1,3.1,321.2,0.00,20.3,130.0,"02:10:02",1
"21/05/21","02:30",4.0,20.7,97.4,1001.7,323.2,1.1,2.6,314.8,0.00,20.3,130.0,"02:20:16",1
"21/05/21","02:40",2.8,20.6,97.4,1001.0,106.3,0.6,1.6,115.6,0.00,20.2,130.0,"02:35:28",1
"21/05/21","02:50",4.6,20.7,97.4,1001.0,295.9,1.0,2.5,309.0,0.00,20.3,130.0,"02:44:24",1
"21/05/21","03:00",1.2,20.7,97.5,1000.5,84.2,0.8,2.6,208.8,0.00,20.3,130.0,"02:59:44",1
"21/05/21","03:10",0.4,20.7,97.4,1000.3,290.7,1.2,3.2,55.1,0.00,20.3,130.0,"03:04:32",1
"21/05/21","03:20",0.6,20.7,97.5,1000.5,102.7,0.6,1.4,203.9,0.00,20.3,130.0,"03:15:04",1
"21/05/21","03:30",0.4,20.8,97.5,1000.0,162.8,0.8,1.7,142.3,0.00,20.4,130.0,"03:21:36",1
"21/05/21","03:40",0.4,20.8,97.5,1000.3,193.3,0.8,2.6,233.8,0.00,20.4,130.0,"03:39:28",1
"21/05/21","03:50",0.4,20.7,97.5,1000.3,238.0,1.1,2.1,234.8,0.00,20.3,130.0,"03:41:36",1
"21/05/21","04:00",0.4,20.8,97.5,1000.3,27.0,0.7,2.1,338.7,0.00,20.4,130.0,"03:58:48",1
"21/05/21","04:10",0.4,20.8,97.6,1000.0,2.2,0.6,1.9,339.0,0.00,20.4,130.0,"04:00:56",1
"21/05/21","04:20",0.4,20.9,97.6,999.8,45.2,0.6,1.4,299.6,0.00,20.5,130.0,"04:15:14",1
"21/05/21","04:30",2.4,21.0,97.5,999.3,223.6,1.0,2.2,225.8,0.00,20.6,130.0,"04:28:32",1
"21/05/21","04:40",0.6,20.8,97.6,999.8,210.0,1.2,2.8,234.3,0.00,20.4,130.0,"04:34:24",1
"21/05/21","04:50",0.4,20.8,97.6,999.6,285.3,0.5,1.6,227.1,0.00,20.4,130.0,"04:40:48",1
"21/05/21","05:00",1.0,20.8,97.6,999.8,31.4,0.3,1.2,350.2,0.00,20.4,130.0,"04:59:28",1
"21/05/21","05:10",5.0,20.9,97.6,1000.3,334.7,1.3,2.9,334.2,0.00,20.5,130.0,"05:03:44",1
"21/05/21","05:20",0.4,21.1,97.6,1000.0,352.6,0.8,2.0,329.4,0.00,20.7,130.0,"05:10:32",1
"21/05/21","05:30",0.0,21.0,97.6,1000.5,274.8,0.7,1.2,322.8,0.00,20.6,130.0,"05:23:36",1
"21/05/21","05:40",0.0,21.0,97.6,1000.3,209.1,1.1,2.2,196.6,0.00,20.6,130.0,"05:35:04",1
"21/05/21","05:50",0.2,21.0,97.7,1000.0,351.5,1.2,2.6,353.2,0.00,20.7,130.0,"05:47:12",1
"21/05/21","06:00",0.4,21.1,97.7,999.8,334.2,1.2,2.9,343.2,0.00,20.8,130.0,"05:55:04",1
"21/05/21","06:10",0.6,21.1,97.6,999.6,289.8,0.6,1.3,342.4,0.00,20.7,130.0,"06:02:56",1
"21/05/21","06:20",0.0,21.0,97.8,1000.3,124.5,0.6,1.8,128.9,0.00,20.7,130.0,"06:10:02",1
"21/05/21","06:30",0.2,20.9,97.8,1000.3,225.4,0.6,1.6,183.2,0.00,20.6,130.0,"06:20:08",1
"21/05/21","06:40",0.0,20.9,97.8,999.8,338.1,0.5,1.0,323.2,0.00,20.6,130.0,"06:37:04",1
"21/05/21","06:50",0.0,20.9,97.8,999.3,341.5,0.6,1.2,308.6,0.00,20.6,130.0,"06:46:16",1
"21/05/21","07:00",0.4,20.9,97.8,1000.0,311.3,0.6,1.2,341.5,0.00,20.6,130.0,"06:54:08",1
"21/05/21","07:10",0.8,21.0,97.8,1000.0,179.3,0.7,1.8,175.4,0.00,20.7,130.0,"07:08:56",1
"21/05/21","07:20",0.2,20.9,97.8,1000.8,187.7,1.2,2.1,174.3,0.00,20.6,130.0,"07:10:48",1
"21/05/21","07:30",0.4,20.7,97.9,1000.3,157.5,1.3,2.8,182.5,0.00,20.4,130.0,"07:22:40",1
"21/05/21","07:40",0.4,20.6,97.9,1000.3,125.7,0.7,1.7,155.6,0.00,20.3,130.0,"07:34:32",1
"21/05/21","07:50",0.4,20.7,97.9,1000.3,133.4,0.6,1.6,122.3,0.00,20.4,130.0,"07:48:40",1
"21/05/21","08:00",0.2,20.6,97.9,1000.3,113.9,0.5,1.2,114.1,0.00,20.3,130.0,"07:57:12",1
"21/05/21","08:10",0.2,20.6,97.9,1000.5,68.6,0.3,0.9,69.2,0.01,20.3,130.0,"08:04:16",1
"21/05/21","08:20",0.2,20.7,98.0,1000.8,159.9,1.1,2.4,139.5,0.00,20.4,130.0,"08:16:56",1
"21/05/21","08:30",0.6,20.8,97.4,1000.8,174.8,0.7,1.6,172.6,0.00,20.4,130.0,"08:20:32",1
"21/05/21","08:40",0.4,20.7,97.9,1000.8,146.6,0.1,0.6,10.6,0.01,20.4,130.0,"08:37:04",1
"21/05/21","08:50",0.2,20.8,97.9,1000.3,351.4,0.6,1.3,18.2,0.01,20.5,130.0,"08:41:20",1
"21/05/21","09:00",0.2,20.9,97.9,1000.5,115.9,0.5,1.7,150.3,0.00,20.6,130.0,"08:55:44",1
"21/05/21","09:10",0.0,21.0,97.9,1000.0,138.4,0.5,1.1,128.3,0.01,20.7,130.0,"09:01:20",1
"21/05/21","09:20",0.2,21.1,97.9,1000.3,148.5,0.7,2.0,152.4,0.01,20.8,130.0,"09:14:56",1
"21/05/21","09:30",0.2,21.1,97.9,999.8,125.5,0.3,1.2,118.0,0.01,20.8,130.0,"09:25:28",1
"21/05/21","09:40",0.4,21.2,97.9,1000.0,359.6,0.6,1.9,341.1,0.01,20.9,130.0,"09:33:52",1
"21/05/21","09:50",0.2,21.2,97.9,999.8,338.5,0.5,1.4,334.3,0.00,20.9,130.0,"09:44:24",1
"21/05/21","10:00",0.2,21.3,97.9,1000.0,141.3,0.3,1.0,132.3,0.00,21.0,130.0,"09:56:40",1
"21/05/21","10:10",0.2,21.4,97.9,999.6,88.5,0.6,1.2,62.4,0.00,21.1,130.0,"10:01:12",1
"21/05/21","10:20",0.2,21.6,97.9,999.6,106.6,0.6,1.4,106.8,0.04,21.3,130.0,"10:16:56",1
"21/05/21","10:30",0.0,21.9,97.9,999.8,91.6,0.3,1.2,121.4,0.06,21.6,130.0,"10:24:24",1
"21/05/21","10:40",0.0,22.0,97.8,999.8,112.4,0.3,1.2,129.2,0.04,21.7,130.0,"10:30:24",1
"21/05/21","10:50",0.0,22.0,97.7,999.8,248.9,0.6,1.9,234.7,0.02,21.7,130.0,"10:47:36",1
"21/05/21","11:00",0.0,21.9,97.8,999.8,296.1,1.0,2.0,343.2,0.03,21.6,130.0,"10:59:52",1
"21/05/21","11:10",0.0,22.0,97.8,999.8,330.4,1.2,2.2,336.8,0.03,21.7,130.0,"11:00:16",1
"21/05/21","11:20",0.2,22.0,97.8,999.8,311.5,0.7,1.4,343.8,0.02,21.7,130.0,"11:14:00",1
"21/05/21","11:30",0.0,22.3,97.9,999.6,325.1,0.6,2.0,339.3,0.08,22.0,130.0,"11:24:16",1
"21/05/21","11:40",0.0,22.0,97.6,999.3,133.3,1.2,4.0,244.3,0.14,21.6,130.0,"11:39:36",1
"21/05/21","11:50",0.0,22.0,97.9,1000.0,259.3,1.2,3.6,238.4,0.09,21.7,130.0,"11:40:40",1
"21/05/21","12:00",0.0,21.9,97.6,999.8,257.6,1.6,5.7,238.5,0.12,21.5,130.0,"11:54:32",1
"21/05/21","12:10",0.0,21.7,97.8,999.6,265.8,2.6,5.4,225.3,0.12,21.4,130.0,"12:04:00",1
"21/05/21","12:20",0.0,22.2,97.8,999.6,260.3,2.1,4.0,228.3,0.22,21.9,130.0,"12:15:12",1
"21/05/21","12:30",0.0,22.4,97.4,998.9,267.7,1.7,4.4,320.2,0.28,22.0,130.0,"12:28:16",1
"21/05/21","12:40",0.0,22.4,96.5,999.1,269.6,2.0,4.8,247.4,0.28,21.9,130.0,"12:34:08",1
"21/05/21","12:50",0.0,22.9,96.3,998.6,250.2,2.2,6.2,194.6,0.43,22.3,130.0,"12:45:52",1
"21/05/21","13:00",0.0,22.7,95.8,998.9,252.5,2.2,7.1,237.2,0.40,22.0,130.0,"12:58:32",1
"21/05/21","13:10",0.0,23.0,94.9,999.1,254.5,2.8,6.2,224.7,0.45,22.2,130.0,"13:07:28",1
"21/05/21","13:20",0.0,23.0,94.5,999.3,276.6,2.2,5.9,283.2,0.31,22.1,130.0,"13:14:40",1
"21/05/21","13:30",0.0,22.9,93.8,999.6,278.5,2.1,5.5,246.2,0.21,21.9,130.0,"13:29:44",1
"21/05/21","13:40",0.0,23.2,92.7,999.6,271.8,2.5,6.2,226.2,0.30,22.0,130.0,"13:31:20",1
"21/05/21","13:50",0.0,24.0,90.0,999.3,279.2,2.2,5.1,237.5,0.39,22.3,130.0,"13:49:36",1
"21/05/21","14:00",0.0,24.1,87.0,999.6,264.2,2.7,5.0,247.0,0.32,21.8,130.0,"13:53:20",1
"21/05/21","14:10",0.0,24.2,84.0,999.6,265.7,2.5,4.3,255.2,0.31,21.4,130.0,"14:02:00",1
"21/05/21","14:20",0.0,24.4,81.8,998.9,265.3,2.2,5.0,235.3,0.26,21.1,130.0,"14:16:32",1
"21/05/21","14:30",0.0,24.4,79.8,998.6,278.2,1.8,4.2,319.7,0.23,20.7,130.0,"14:22:16",1
"21/05/21","14:40",0.0,24.3,79.2,999.1,286.4,1.7,3.9,307.0,0.18,20.5,130.0,"14:37:12",1
"21/05/21","14:50",0.0,23.9,78.4,999.6,269.8,2.3,4.3,324.3,0.15,20.0,130.0,"14:41:44",1
"21/05/21","15:00",0.0,23.6,78.9,999.8,282.7,1.7,4.3,326.0,0.10,19.8,130.0,"14:53:04",1
"21/05/21","15:10",0.0,23.1,79.8,999.8,296.5,2.1,5.6,326.0,0.07,19.5,130.0,"15:03:20",1
"21/05/21","15:20",0.0,22.6,81.0,999.8,272.8,1.7,4.4,304.9,0.08,19.2,130.0,"15:12:24",1
"21/05/21","15:30",0.0,22.5,81.9,1000.0,271.9,1.8,3.7,244.9,0.06,19.3,130.0,"15:27:20",1
"21/05/21","15:40",0.0,21.9,82.5,1000.0,263.2,2.3,5.0,260.9,0.04,18.8,130.0,"15:36:08",1
"21/05/21","15:50",0.2,21.6,83.2,1000.0,272.4,2.0,4.2,283.0,0.04,18.7,130.0,"15:46:40",1
"21/05/21","16:00",0.0,21.2,83.8,1000.0,268.0,2.1,4.9,233.6,0.06,18.4,130.0,"15:58:32",1
"21/05/21","16:10",0.2,21.0,84.3,999.8,275.5,2.3,5.8,309.2,0.06,18.3,130.0,"16:09:36",1
"21/05/21","16:20",0.0,21.0,84.8,999.8,277.4,2.2,4.7,273.9,0.08,18.4,130.0,"16:17:36",1
"21/05/21","16:30",0.0,20.9,84.3,1000.3,276.0,3.0,6.7,243.7,0.10,18.2,130.0,"16:20:56",1
"21/05/21","16:40",0.0,20.8,83.7,1000.3,286.7,2.2,5.1,269.5,0.06,18.0,130.0,"16:32:16",1
"21/05/21","16:50",0.0,20.6,83.1,1000.3,262.0,2.5,5.5,233.1,0.04,17.7,130.0,"16:47:04",1
"21/05/21","17:00",0.0,20.6,82.5,1000.5,275.3,2.3,4.4,329.3,0.04,17.6,130.0,"16:59:52",1
"21/05/21","17:10",0.0,20.5,81.7,1000.3,280.9,2.7,5.7,303.2,0.04,17.3,130.0,"17:00:40",1
"21/05/21","17:20",0.0,20.4,81.0,1000.5,272.5,2.1,5.7,238.2,0.02,17.1,130.0,"17:15:36",1
"21/05/21","17:30",0.0,20.4,80.5,1000.5,274.3,1.7,2.7,318.1,0.01,17.0,130.0,"17:26:00",1
"21/05/21","17:40",0.0,20.3,79.8,1000.5,279.7,1.8,2.8,333.3,0.01,16.7,130.0,"17:31:52",1
"21/05/21","17:50",0.0,20.3,78.5,1000.5,276.5,2.0,4.3,314.8,0.00,16.5,130.0,"17:45:44",1
"21/05/21","18:00",0.0,20.4,77.8,1000.5,280.2,1.8,3.4,289.6,0.00,16.4,130.0,"17:50:56",1
"21/05/21","18:10",0.0,20.3,77.1,1000.5,264.0,1.8,5.4,317.1,0.00,16.2,130.0,"18:04:24",1
"21/05/21","18:20",0.0,20.3,76.6,1000.8,262.4,1.6,5.4,330.6,0.00,16.1,130.0,"18:12:48",1
"21/05/21","18:30",0.0,20.3,76.3,1000.5,268.6,1.6,2.8,257.5,0.00,16.0,130.0,"18:24:32",1
"21/05/21","18:40",0.0,20.1,75.6,1000.8,268.6,1.7,4.1,261.6,0.00,15.7,130.0,"18:39:44",1
"21/05/21","18:50",0.0,20.2,75.1,1000.8,265.8,1.5,3.5,234.8,0.00,15.7,130.0,"18:40:24",1
"21/05/21","19:00",0.0,20.3,75.8,1001.5,229.9,1.3,2.8,208.1,0.00,15.9,130.0,"18:57:36",1
"21/05/21","19:10",0.0,19.8,78.1,1001.2,196.6,1.5,3.4,184.5,0.00,15.9,130.0,"19:08:40",1
"21/05/21","19:20",0.0,19.9,78.6,1001.5,242.8,1.6,3.3,255.8,0.00,16.1,130.0,"19:13:20",1
"21/05/21","19:30",0.0,19.9,79.6,1001.5,232.8,1.2,3.4,229.2,0.00,16.3,130.0,"19:20:24",1
"21/05/21","19:40",0.0,19.9,80.7,1001.2,201.3,1.8,3.7,228.3,0.00,16.5,130.0,"19:32:08",1
"21/05/21","19:50",0.0,19.7,82.1,1001.9,179.1,1.7,3.5,144.1,0.00,16.6,130.0,"19:40:40",1
"21/05/21","20:00",0.0,19.4,83.9,1001.7,171.5,1.1,2.7,179.7,0.00,16.6,130.0,"19:55:28",1
"21/05/21","20:10",0.0,19.3,85.4,1002.4,174.7,1.0,2.6,145.0,0.00,16.8,130.0,"20:03:04",1
"21/05/21","20:20",0.0,19.1,86.2,1002.4,242.7,0.7,1.9,131.7,0.00,16.8,130.0,"20:13:28",1
"21/05/21","20:30",0.0,18.9,86.9,1001.9,308.6,1.1,2.1,323.7,0.00,16.7,130.0,"20:28:16",1
"21/05/21","20:40",0.0,18.8,87.5,1002.2,332.5,1.3,2.4,339.8,0.00,16.7,130.0,"20:38:00",1
"21/05/21","20:50",0.0,18.6,88.0,1001.9,336.1,0.6,1.4,320.3,0.00,16.6,130.0,"20:48:00",1
"21/05/21","21:00",0.0,18.4,88.5,1002.2,334.9,1.0,1.3,317.9,0.00,16.5,130.0,"20:57:36",1
"21/05/21","21:10",0.0,18.2,88.9,1002.6,248.9,0.7,1.8,244.5,0.00,16.4,130.0,"21:04:24",1
"21/05/21","21:20",0.0,18.1,89.3,1003.1,305.4,0.8,2.0,334.7,0.00,16.4,130.0,"21:10:02",1
"21/05/21","21:30",0.0,18.0,89.4,1002.6,314.5,1.1,2.0,337.8,0.00,16.3,130.0,"21:20:08",1
"21/05/21","21:40",0.0,17.8,89.8,1002.6,255.4,0.7,1.6,300.9,0.00,16.1,130.0,"21:33:04",1
"21/05/21","21:50",0.0,17.7,90.1,1002.9,294.7,1.0,2.7,309.2,0.00,16.1,130.0,"21:42:48",1
"21/05/21","22:00",0.0,17.7,90.4,1002.9,306.4,1.2,2.4,325.7,0.00,16.1,130.0,"21:58:24",1
"21/05/21","22:10",0.0,17.6,90.6,1003.4,292.7,0.7,1.3,297.8,0.00,16.1,130.0,"22:08:16",1
"21/05/21","22:20",0.0,17.8,90.7,1003.1,247.5,0.8,3.6,289.6,0.00,16.3,130.0,"22:11:20",1
"21/05/21","22:30",0.0,17.9,90.6,1003.4,263.3,0.7,2.1,297.6,0.00,16.4,130.0,"22:20:08",1
"21/05/21","22:40",0.0,18.0,90.4,1003.1,251.4,1.0,3.2,200.0,0.00,16.4,130.0,"22:35:52",1
"21/05/21","22:50",0.0,18.3,89.2,1003.1,266.3,0.8,1.6,247.6,0.00,16.5,130.0,"22:41:44",1
"21/05/21","23:00",0.0,18.3,88.3,1003.1,228.9,1.5,4.0,177.8,0.00,16.4,130.0,"22:57:52",1
"21/05/21","23:10",0.0,18.5,86.8,1002.9,233.5,1.6,3.9,228.4,0.00,16.3,130.0,"23:09:20",1
"21/05/21","23:20",0.0,18.8,85.0,1003.1,229.9,2.0,3.9,223.7,0.00,16.3,130.0,"23:10:56",1
"21/05/21","23:30",0.0,19.0,83.0,1003.1,253.0,1.8,5.2,249.1,0.00,16.1,130.0,"23:22:08",1
"21/05/21","23:40",0.0,19.0,81.7,1002.6,238.0,2.0,5.0,231.3,0.00,15.8,130.0,"23:36:00",1
"21/05/21","23:50",0.0,18.9,81.0,1002.6,262.9,1.2,2.5,236.6,0.00,15.6,130.0,"23:45:36",1
"21/05/21","24:00",0.0,18.9,80.6,1002.6,263.2,1.3,2.9,229.2,0.00,15.5,130.0,"23:52:48",1
